sat.trackr.live / text

‹ back to catalog

STARLINK-32815

NORAD 62956 · 2025-029J

PAYLOAD ACTIVE UNKNOWN

§ Identity

Operator
Country
US
Launch date
2025-02-11
Launch site
AFWTR
Launch vehicle
Mass (kg)
RCS (m²)

Purposes: comms

External: N2YO · Heavens-Above · Gunter

§ Orbital elements

Epoch: 2026-09-21T20:18:53.407008Z

Period
93.85 min
Inclination
53.1592°
Eccentricity
0.0001139
Mean motion
15.34408175 rev/d
Perigee alt
461.9 km
Apogee alt
463.5 km
Semi-major
6,840.8 km
B*
5.2758e-4
RAAN
35.4011°
Arg perigee
77.6372°
Mean anomaly
282.4758°
Rev number
9,144

§ Raw data

STARLINK-328151 62956U 25029J   26264.84645147  .00017495  00000+0  52758-3 0  99902 62956  53.1592  35.4011 0001139  77.6372 282.4758 15.34408175 91447

JSON: /api/v1/satellites/62956 · /tle

For live sub-satellite position, see the globe view (requires WebGL).

§ Visibility from observer

Set your observer location to see the next 7 days of passes ≥ 10°. The values pass through the URL so the page stays shareable.

No JS? Fill the form by hand. The geolocation button needs JavaScript.